| time (UTC) | temp F | wind direction | speed knots | gust knots | rain 1hr in | rain 24hr in | rain mn in | humidity % | barometer mb |
| 20260504081544 | 37 | 242 | 9.6 | 29.5 | 0.03 | 0.49 | 0.17 | 93 | 980.2 |
| 20260504050014 | 39 | 309 | 4.3 | 9.6 | 0.03 | 0.35 | 0.04 | 93 | 975.3 |
| 20260504044507 | 39 | 330 | 1.7 | 5.2 | 0.04 | 0.36 | 0.04 | 93 | 975.1 |
| 20260504043005 | 39 | 355 | 2.6 | 7.0 | 0.02 | 0.35 | 0.02 | 93 | 975.2 |
| 20260504041505 | 39 | 47 | 2.6 | 8.7 | 0.02 | 0.34 | 0.02 | 92 | 975.3 |
| 20260504040002 | 39 | 64 | 2.6 | 8.7 | 0.01 | 0.33 | 0.01 | 92 | 975.5 |
| 20260504034559 | 39 | 53 | 3.5 | 9.6 | 0.00 | 0.32 | 0.00 | 92 | 975.9 |
| 20260504033102 | 39 | 64 | 4.3 | 11.3 | 0.01 | 0.32 | 0.00 | 92 | 976.1 |
| 20260504031555 | 39 | 100 | 5.2 | 13.0 | 0.01 | 0.32 | 0.00 | 92 | 976.8 |
| 20260504030051 | 40 | 86 | 4.3 | 16.5 | 0.01 | 0.32 | 0.00 | 92 | 977.3 |
| 20260504024552 | 40 | 109 | 6.1 | 11.3 | 0.01 | 0.32 | 0.32 | 92 | 978.1 |
| 20260504023046 | 41 | 126 | 7.8 | 17.4 | 0.00 | 0.31 | 0.31 | 92 | 978.5 |
| 20260504021544 | 41 | 46 | 7.0 | 17.4 | 0.00 | 0.31 | 0.31 | 92 | 978.6 |
| 20260504020122 | 41 | 74 | 9.6 | 22.6 | 0.00 | 0.31 | 0.31 | 93 | 979.0 |
| 20260504014555 | 40 | 71 | 7.0 | 13.9 | 0.00 | 0.31 | 0.31 | 92 | 980.0 |
| 20260504013045 | 40 | 70 | 6.1 | 13.0 | 0.00 | 0.31 | 0.31 | 92 | 980.9 |
| 20260504011534 | 40 | 71 | 9.6 | 17.4 | 0.01 | 0.31 | 0.31 | 92 | 981.3 |
| 20260504010031 | 40 | 65 | 10.4 | 22.6 | 0.01 | 0.31 | 0.31 | 92 | 982.2 |
| 20260504004533 | 40 | 64 | 9.6 | 22.6 | 0.01 | 0.31 | 0.31 | 92 | 983.1 |
| 20260504003027 | 40 | 78 | 10.4 | 18.2 | 0.01 | 0.31 | 0.31 | 92 | 983.9 |
| 20260504001525 | 40 | 66 | 10.4 | 23.5 | 0.01 | 0.31 | 0.31 | 92 | 984.2 |
| 20260504000023 | 41 | 66 | 13.0 | 24.3 | 0.04 | 0.31 | 0.31 | 92 | 984.8 |
| 20260503234522 | 40 | 84 | 11.3 | 24.3 | 0.05 | 0.31 | 0.31 | 92 | 985.7 |
| 20260503233021 | 40 | 71 | 12.2 | 23.5 | 0.06 | 0.31 | 0.31 | 92 | 986.4 |
| 20260503231516 | 39 | 83 | 11.3 | 24.3 | 0.06 | 0.30 | 0.30 | 92 | 987.6 |
| 20260503230013 | 39 | 82 | 13.0 | 22.6 | 0.03 | 0.27 | 0.27 | 92 | 988.7 |
| 20260503224508 | 39 | 83 | 9.6 | 25.2 | 0.05 | 0.26 | 0.26 | 91 | 989.6 |
| 20260503223006 | 39 | 63 | 13.9 | 25.2 | 0.08 | 0.25 | 0.25 | 92 | 990.4 |
| 20260503221605 | 39 | 90 | 10.4 | 18.2 | 0.09 | 0.24 | 0.24 | 91 | 991.6 |
| 20260503220059 | 39 | 92 | 9.6 | 19.1 | 0.09 | 0.24 | 0.24 | 91 | 992.6 |
| 20260503214559 | 39 | 76 | 10.4 | 19.1 | 0.08 | 0.21 | 0.21 | 91 | 993.7 |
| 20260503213053 | 40 | 74 | 6.1 | 15.6 | 0.06 | 0.17 | 0.17 | 91 | 994.3 |
| 20260503211650 | 40 | 59 | 7.8 | 19.1 | 0.04 | 0.15 | 0.15 | 90 | 994.5 |
| 20260503210051 | 40 | 69 | 10.4 | 22.6 | 0.04 | 0.14 | 0.14 | 90 | 994.6 |
| 20260503204548 | 42 | 78 | 13.0 | 21.7 | 0.04 | 0.13 | 0.13 | 89 | 995.0 |
| 20260503203103 | 43 | 77 | 9.6 | 13.0 | 0.06 | 0.12 | 0.12 | 89 | 996.0 |
| 20260503201543 | 43 | 94 | 7.0 | 12.2 | 0.06 | 0.11 | 0.11 | 89 | 996.4 |
| 20260503200040 | 42 | 77 | 5.2 | 11.3 | 0.06 | 0.10 | 0.10 | 88 | 997.1 |
| 20260503194542 | 42 | 65 | 6.1 | 11.3 | 0.04 | 0.09 | 0.09 | 87 | 998.0 |
| 20260503193038 | 43 | 78 | 7.8 | 11.3 | 0.03 | 0.06 | 0.06 | 86 | 998.8 |
| 20260503191536 | 42 | 5 | 9.6 | 17.4 | 0.04 | 0.05 | 0.05 | 86 | 999.0 |
| 20260503190037 | 42 | 69 | 9.6 | 15.6 | 0.04 | 0.05 | 0.05 | 86 | 1000.2 |
| 20260503184525 | 43 | 76 | 6.1 | 13.9 | 0.04 | 0.05 | 0.05 | 83 | 1001.6 |
| 20260503183019 | 44 | 58 | 7.0 | 13.0 | 0.02 | 0.03 | 0.03 | 79 | 1002.7 |
| 20260503181517 | 45 | 64 | 5.2 | 14.8 | 0.00 | 0.01 | 0.01 | 80 | 1003.4 |
| 20260503180013 | 46 | 74 | 6.1 | 12.2 | 0.00 | 0.01 | 0.01 | 79 | 1004.8 |
| 20260503174510 | 47 | 107 | 5.2 | 13.0 | 0.00 | 0.01 | 0.01 | 77 | 1005.6 |
| 20260503173008 | 48 | 91 | 6.1 | 13.0 | 0.00 | 0.01 | 0.01 | 75 | 1005.9 |
| 20260503171506 | 49 | 111 | 6.1 | 12.2 | 0.00 | 0.01 | 0.01 | 75 | 1006.5 |